VK2OU Weather Reports


time (UTC)temp
C
wind
direction
speed
KPH
gust
KPH
rain 1hr
cm
rain 24hr
cm
rain mn
cm
humidity
%
barometer
mb
20260508055534 12 270 11.3 17.7 0.00 0.00 0.00 65
20260508055526 14 0.0 0.0 0.00 0.00 0.00 99
20260508054533 15 0.0 0.0 0.00 0.00 0.00 99
20260508054526 13 257 8.0 16.1 0.00 0.00 0.00 63
20260508053620 15 0.0 0.0 0.00 0.00 0.00 99
20260508053534 13 277 9.7 17.7 0.00 0.00 0.00 62
20260508052531 16 0.0 0.0 0.00 0.00 0.00 99
20260508052526 13 268 11.3 22.5 0.00 0.00 0.00 60
20260508051534 13 274 9.7 17.7 0.00 0.00 0.00 62
20260508051520 15 0.0 0.0 0.00 0.00 0.00 99
20260508050531 15 0.0 0.0 0.00 0.00 0.00 99
20260508050526 13 273 11.3 22.5 0.00 0.00 0.00 62
20260508045534 13 285 12.9 27.4 0.00 0.00 0.00 61
20260508045021 15 0.0 1.6 0.00 0.00 0.00 99
20260508044526 13 279 11.3 20.9 0.00 0.00 0.00 62
20260508044049 15 0.0 0.0 0.00 0.00 0.00 99
20260508043554 13 289 11.3 20.9 0.00 0.00 0.00 62
20260508043037 14 267 1.6 11.3 0.00 0.00 0.00 99
20260508042546 13 285 16.1 29.0 0.00 0.00 0.00 61
20260508042027 15 293 0.0 3.2 0.00 0.00 0.00 99
20260508041534 13 275 12.9 25.7 0.00 0.00 0.00 62
20260508041034 15 0.0 1.6 0.00 0.00 0.00 99
20260508040526 13 271 12.9 25.7 0.00 0.00 0.00 61
20260508040024 16 0.0 0.0 0.00 0.00 0.00 99
20260508035534 13 271 8.0 20.9 0.00 0.00 0.00 63
20260508035032 15 0.0 0.0 0.00 0.00 0.00 99
20260508034526 12 283 11.3 22.5 0.00 0.00 0.00 66
20260508034021 15 0.0 0.0 0.00 0.00 0.00 99
20260508033534 13 284 9.7 20.9 0.00 0.00 0.00 64
20260508033107 15 0.0 0.0 0.00 0.00 0.00 99
20260508032526 12 281 12.9 20.9 0.00 0.00 0.00 64
20260508032037 15 315 0.0 9.7 0.00 0.00 0.00 99
20260508031534 13 269 8.0 17.7 0.00 0.00 0.00 64
20260508031026 14 0.0 0.0 0.00 0.00 0.00 99
20260508030526 12 264 9.7 20.9 0.00 0.00 0.00 66
20260508030034 13 0.0 0.0 0.00 0.00 0.00 99
20260508025534 12 275 12.9 24.1 0.00 0.00 0.00 66
20260508025024 13 0.0 1.6 0.00 0.00 0.00 99
20260508024526 12 289 12.9 27.4 0.00 0.00 0.00 68
20260508024031 13 0.0 0.0 0.00 0.00 0.00 99
20260508023534 11 275 11.3 22.5 0.00 0.00 0.00 70
20260508023020 13 309 0.0 4.8 0.00 0.00 0.00 99
20260508022526 11 280 8.0 17.7 0.00 0.00 0.00 71
20260508022028 13 0.0 0.0 0.00 0.00 0.00 99
20260508021534 11 265 6.4 17.7 0.00 0.00 0.00 70
20260508021037 13 0.0 0.0 0.00 0.00 0.00 99
20260508020526 11 271 9.7 24.1 0.00 0.00 0.00 72
20260508020025 12 0.0 0.0 0.00 0.00 0.00 99
20260508015534 10 291 11.3 25.7 0.00 0.00 0.00 72
20260508015033 12 0.0 0.0 0.00 0.00 0.00 99
20260508014526 10 294 11.3 22.5 0.00 0.00 0.00 74
20260508014048 12 293 0.0 4.8 0.00 0.00 0.00 99
20260508013535 10 295 11.3 25.7 0.00 0.00 0.00 75
20260508013030 11 0.0 0.0 0.00 0.00 0.00 99
20260508012547 10 295 9.7 25.7 0.00 0.00 0.00 74
20260508012020 11 0.0 0.0 0.00 0.00 0.00 99
20260508011534 10 289 9.7 20.9 0.00 0.00 0.00 75
20260508011027 11 0.0 0.0 0.00 0.00 0.00 99
20260508010527 9 282 11.3 20.9 0.00 0.00 0.00 75
20260508010054 11 295 1.6 11.3 0.00 0.00 0.00 99
20260508005534 10 293 9.7 20.9 0.00 0.00 0.00 74
20260508005025 11 0.0 0.0 0.00 0.00 0.00 99
20260508004526 9 290 11.3 27.4 0.00 0.00 0.00 75
20260508004033 11 330 1.6 11.3 0.00 0.00 0.00 99
20260508003534 10 283 12.9 24.1 0.00 0.00 0.00 74
20260508003022 11 1.6 14.5 0.00 0.00 0.00 99
20260508002606 9 270 9.7 22.5 0.00 0.00 0.00 75
20260508002050 11 293 0.0 1.6 0.00 0.00 0.00 99
20260508001534 10 273 9.7 17.7 0.00 0.00 0.00 74
20260508001020 10 0.0 0.0 0.00 0.00 0.00 99
20260508000527 9 265 9.7 17.7 0.00 0.00 0.00 76
20260508000048 10 293 0.0 1.6 0.00 0.00 0.00 99
20260507235534 8 268 8.0 16.1 0.00 0.00 0.00 77
20260507235035 10 0.0 0.0 0.00 0.00 0.00 99
20260507234526 8 272 9.7 24.1 0.00 0.00 0.00 78
20260507234024 9 0.0 0.0 0.00 0.00 0.00 99
20260507233534 8 282 9.7 24.1 0.00 0.00 0.00 78
20260507233052 9 248 0.0 1.6 0.00 0.00 0.00 99
20260507232527 8 282 9.7 22.5 0.00 0.00 0.00 79
20260507232022 8 0.0 4.8 0.00 0.00 0.00 99
20260507231535 7 282 9.7 22.5 0.00 0.00 0.00 81
20260507231528 8 0.0 0.0 0.00 0.00 0.00 99
20260507230527 7 279 8.0 25.7 0.00 0.00 0.00 82
20260507230037 8 0.0 0.0 0.00 0.00 0.00 99
20260507225535 6 281 6.4 17.7 0.00 0.00 0.00 84
20260507225045 7 0.0 0.0 0.00 0.00 0.00 99
20260507224526 6 288 9.7 17.7 0.00 0.00 0.00 84
20260507224034 7 0.0 1.6 0.00 0.00 0.00 99
20260507223534 7 297 6.4 14.5 0.00 0.00 0.00 82
20260507223024 7 0.0 0.0 0.00 0.00 0.00 99
20260507222526 6 285 6.4 14.5 0.00 0.00 0.00 83
20260507222032 7 0.0 0.0 0.00 0.00 0.00 99
20260507221534 6 284 8.0 17.7 0.00 0.00 0.00 84
20260507221204 6 0.0 8.0 0.00 0.00 0.00 99
20260507220526 6 283 9.7 24.1 0.00 0.00 0.00 86
20260507220029 6 0.0 0.0 0.00 0.00 0.00 99
20260507215534 5 261 4.8 8.0 0.00 0.00 0.00 89
20260507214527 4 279 8.0 14.5 0.00 0.00 0.00 90
20260507213534 4 281 8.0 12.9 0.00 0.00 0.00 91
20260507212527 3 290 6.4 12.9 0.00 0.00 0.00 92
20260507211833 3 0.0 0.0 0.00 0.00 0.00 99
20260507211535 3 272 4.8 8.0 0.00 0.00 0.00 93
20260507210555 3 0.0 0.0 0.00 0.00 0.00 99
20260507210547 3 268 6.4 9.7 0.00 0.00 0.00 92
20260507205614 3 269 6.4 9.7 0.00 0.00 0.00 93
20260507205604 3 0.0 0.0 0.00 0.00 0.00 99
20260507204532 3 0.0 0.0 0.00 0.00 0.00 99
20260507204526 3 282 6.4 11.3 0.00 0.00 0.00 92
20260507203534 3 259 1.6 3.2 0.00 0.00 0.00 92
20260507203524 3 0.0 0.0 0.00 0.00 0.00 99
20260507202530 3 0.0 0.0 0.00 0.00 0.00 99
20260507202526 3 271 4.8 11.3 0.00 0.00 0.00 91
20260507201537 3 0.0 0.0 0.00 0.00 0.00 99
20260507201534 3 273 4.8 9.7 0.00 0.00 0.00 91
20260507200527 3 0.0 0.0 0.00 0.00 0.00 99
20260507195534 3 265 3.2 8.0 0.00 0.00 0.00 89
20260507194526 3 285 6.4 12.9 0.00 0.00 0.00 89
20260507194524 3 0.0 0.0 0.00 0.00 0.00 99
20260507193534 3 270 8.0 12.9 0.00 0.00 0.00 89
20260507193532 3 0.0 0.0 0.00 0.00 0.00 99
20260507192546 3 276 8.0 16.1 0.00 0.00 0.00 88
20260507192542 3 0.0 0.0 0.00 0.00 0.00 99
20260507191534 3 283 8.0 14.5 0.00 0.00 0.00 87
20260507191529 3 0.0 0.0 0.00 0.00 0.00 99
20260507190539 3 0.0 0.0 0.00 0.00 0.00 99
20260507190527 3 271 9.7 17.7 0.00 0.00 0.00 87
20260507185534 4 283 6.4 14.5 0.00 0.00 0.00 85
20260507185527 3 0.0 0.0 0.00 0.00 0.00 99
20260507184534 3 0.0 0.0 0.00 0.00 0.00 99
20260507184526 4 280 9.7 20.9 0.00 0.00 0.00 85
20260507183534 4 279 9.7 17.7 0.00 0.00 0.00 85
20260507183523 3 0.0 0.0 0.00 0.00 0.00 99
20260507182551 3 0.0 0.0 0.00 0.00 0.00 99
20260507182547 3 280 9.7 24.1 0.00 0.00 0.00 84
20260507181555 3 264 9.7 22.5 0.00 0.00 0.00 84
20260507181521 3 0.0 0.0 0.00 0.00 0.00 99
20260507180528 3 0.0 0.0 0.00 0.00 0.00 99
20260507180526 3 272 9.7 16.1 0.00 0.00 0.00 83
20260507175616 3 0.0 0.0 0.00 0.00 0.00 99
20260507174546 3 275 6.4 17.7 0.00 0.00 0.00 82
20260507173554 3 0.0 0.0 0.00 0.00 0.00 99
20260507172526 3 281 8.0 17.7 0.00 0.00 0.00 81
20260507172523 3 0.0 0.0 0.00 0.00 0.00 99
20260507171535 3 266 9.7 17.7 0.00 0.00 0.00 81
20260507171531 3 0.0 0.0 0.00 0.00 0.00 99
20260507170526 3 270 8.0 12.9 0.00 0.00 0.00 82
20260507170520 3 0.0 0.0 0.00 0.00 0.00 99
20260507165534 3 275 6.4 12.9 0.00 0.00 0.00 81
20260507165528 3 0.0 0.0 0.00 0.00 0.00 99
20260507164555 3 0.0 0.0 0.00 0.00 0.00 99
20260507164547 3 279 8.0 17.7 0.00 0.00 0.00 80
20260507163534 3 277 11.3 17.7 0.00 0.00 0.00 80
20260507163526 3 0.0 0.0 0.00 0.00 0.00 99
20260507162533 3 0.0 0.0 0.00 0.00 0.00 99
20260507162526 3 267 8.0 16.1 0.00 0.00 0.00 81
20260507161534 3 275 8.0 14.5 0.00 0.00 0.00 80
20260507161522 3 0.0 0.0 0.00 0.00 0.00 99
20260507160530 3 0.0 0.0 0.00 0.00 0.00 99
20260507160527 3 276 9.7 16.1 0.00 0.00 0.00 80
20260507155534 3 269 6.4 16.1 0.00 0.00 0.00 79
20260507155520 3 0.0 0.0 0.00 0.00 0.00 99
20260507154528 3 0.0 0.0 0.00 0.00 0.00 99
20260507154526 3 273 6.4 11.3 0.00 0.00 0.00 79
20260507153535 3 0.0 0.0 0.00 0.00 0.00 99
20260507152526 3 266 4.8 12.9 0.00 0.00 0.00 79
20260507152524 3 0.0 0.0 0.00 0.00 0.00 99
20260507151534 3 274 8.0 14.5 0.00 0.00 0.00 78
20260507150526 3 270 9.7 17.7 0.00 0.00 0.00 78
20260507150522 3 0.0 0.0 0.00 0.00 0.00 99
20260507145534 3 271 9.7 25.7 0.00 0.00 0.00 79
20260507145530 2 0.0 0.0 0.00 0.00 0.00 99
20260507144543 2 0.0 0.0 0.00 0.00 0.00 99
20260507144527 2 243 3.2 14.5 0.00 0.00 0.00 82
20260507143534 2 252 1.6 9.7 0.00 0.00 0.00 81
20260507143527 2 0.0 0.0 0.00 0.00 0.00 99
20260507142535 2 0.0 0.0 0.00 0.00 0.00 99
20260507142526 2 271 3.2 9.7 0.00 0.00 0.00 80
20260507141534 2 264 3.2 8.0 0.00 0.00 0.00 79
20260507141524 2 0.0 0.0 0.00 0.00 0.00 99
20260507140532 2 0.0 0.0 0.00 0.00 0.00 99
20260507140526 2 270 4.8 8.0 0.00 0.00 0.00 78
20260507135534 2 272 6.4 12.9 0.00 0.00 0.00 78
20260507135522 2 0.0 0.0 0.00 0.00 0.00 99
20260507134529 2 0.0 0.0 0.00 0.00 0.00 99
20260507134526 2 266 6.4 14.5 0.00 0.00 0.00 79
20260507133537 2 0.0 0.0 0.00 0.00 0.00 99
20260507133534 2 279 4.8 9.7 0.00 0.00 0.00 78
20260507132607 2 274 4.8 9.7 0.00 0.00 0.00 78
20260507131534 2 0.0 0.0 0.00 0.00 0.00 99
20260507130547 2 279 6.4 9.7 0.00 0.00 0.00 78
20260507130545 2 0.0 0.0 0.00 0.00 0.00 99
20260507125534 3 280 4.8 8.0 0.00 0.00 0.00 77
20260507125531 2 0.0 0.0 0.00 0.00 0.00 99
20260507124546 3 268 6.4 9.7 0.00 0.00 0.00 76
20260507124521 3 0.0 0.0 0.00 0.00 0.00 99
20260507123534 3 271 6.4 14.5 0.00 0.00 0.00 76
20260507123529 3 0.0 0.0 0.00 0.00 0.00 99
20260507122536 3 0.0 0.0 0.00 0.00 0.00 99
20260507122526 3 260 8.0 17.7 0.00 0.00 0.00 75
20260507121534 3 272 6.4 11.3 0.00 0.00 0.00 76
20260507121526 3 0.0 0.0 0.00 0.00 0.00 99
20260507120546 3 286 6.4 16.1 0.00 0.00 0.00 74
20260507115534 3 278 4.8 12.9 0.00 0.00 0.00 74
20260507114526 3 291 6.4 11.3 0.00 0.00 0.00 73
20260507113534 3 276 6.4 11.3 0.00 0.00 0.00 72
20260507112606 3 275 8.0 16.1 0.00 0.00 0.00 72
20260507112032 3 0.0 0.0 0.00 0.00 0.00 99
20260507111535 3 270 8.0 16.1 0.00 0.00 0.00 73
20260507111022 3 0.0 0.0 0.00 0.00 0.00 99
20260507110526 3 279 8.0 17.7 0.00 0.00 0.00 74
20260507110029 3 0.0 0.0 0.00 0.00 0.00 99
20260507105534 3 267 8.0 17.7 0.00 0.00 0.00 74
20260507105057 3 0.0 0.0 0.00 0.00 0.00 99
20260507104526 3 272 9.7 14.5 0.00 0.00 0.00 73
20260507104027 3 0.0 0.0 0.00 0.00 0.00 99
20260507103534 3 262 8.0 14.5 0.00 0.00 0.00 73
20260507103035 3 0.0 0.0 0.00 0.00 0.00 99
20260507102527 4 265 9.7 20.9 0.00 0.00 0.00 72
20260507102023 3 0.0 0.0 0.00 0.00 0.00 99
20260507101534 4 262 9.7 17.7 0.00 0.00 0.00 71
20260507100526 4 263 9.7 17.7 0.00 0.00 0.00 71
20260507095535 3 262 8.0 16.1 0.00 0.00 0.00 73
20260507094527 3 261 6.4 16.1 0.00 0.00 0.00 73
20260507093535 3 255 6.4 11.3 0.00 0.00 0.00 72
20260507092528 4 260 6.4 11.3 0.00 0.00 0.00 71
20260507091534 4 254 4.8 12.9 0.00 0.00 0.00 69
20260507091519 4 0.0 0.0 0.00 0.00 0.00 99
20260507090526 5 0.0 0.0 0.00 0.00 0.00 99
20260507085535 5 0.0 0.0 0.00 0.00 0.00 99
20260507084526 5 273 11.3 22.5 0.00 0.00 0.00 67
20260507083534 5 268 9.7 17.7 0.00 0.00 0.00 66
20260507082526 5 258 8.0 17.7 0.00 0.00 0.00 66
20260507082522 5 0.0 0.0 0.00 0.00 0.00 99
20260507081534 5 259 8.0 14.5 0.00 0.00 0.00 65
20260507081529 5 0.0 0.0 0.00 0.00 0.00 99
20260507080537 5 0.0 0.0 0.00 0.00 0.00 99
20260507080528 5 263 9.7 20.9 0.00 0.00 0.00 64
20260507075554 5 259 9.7 24.1 0.00 0.00 0.00 62
20260507075552 5 0.0 0.0 0.00 0.00 0.00 99
20260507074534 6 0.0 0.0 0.00 0.00 0.00 99
20260507074529 6 266 9.7 27.4 0.00 0.00 0.00 61
20260507073534 6 255 11.3 24.1 0.00 0.00 0.00 59
20260507073524 6 0.0 0.0 0.00 0.00 0.00 99
20260507072532 6 0.0 1.6 0.00 0.00 0.00 99
20260507072527 6 241 9.7 20.9 0.00 0.00 0.00 58
20260507071534 6 243 8.0 25.7 0.00 0.00 0.00 58
20260507071523 6 0.0 0.0 0.00 0.00 0.00 99
20260507070528 6 0.0 0.0 0.00 0.00 0.00 99
20260507070526 6 241 9.7 16.1 0.00 0.00 0.00 60
20260507065558 6 0.0 0.0 0.00 0.00 0.00 99
20260507065556 6 251 11.3 27.4 0.00 0.00 0.00 59
20260507064548 6 0.0 0.0 0.00 0.00 0.00 99
20260507063534 6 253 9.7 20.9 0.00 0.00 0.00 57
20260507062526 7 254 11.3 22.5 0.00 0.00 0.00 55
20260507061557 7 245 11.3 20.9 0.00 0.00 0.00 52
20260507061036 8 0.0 0.0 0.00 0.00 0.00 99
20260507060530 7 253 8.0 17.7 0.00 0.00 0.00 49